[keps] orb08267.2l.amsat

Ray Hoad r.hoad at att.net
Tue Sep 23 17:35:51 PDT 2008


SB KEPS @ AMSAT  $ORB08267.N
2Line Orbital Elements 08267.AMSAT

HR AMSAT ORBITAL ELEMENTS FOR AMATEUR SATELLITES IN NASA FORMAT
FROM WA5QGD FORT WORTH,TX September 23, 2008
Send Subscribe/unsubscribe to KEPS at 
http://www.amsat.org/mailman/listinfo/keps
BID: ORB08267.N

DECODE 2-LINE ELSETS WITH THE FOLLOWING KEY:
1 AAAAAU 00  0  0 BBBBB.BBBBBBBB  .CCCCCCCC  00000-0  00000-0 0  DDDZ
2 AAAAA EEE.EEEE FFF.FFFF GGGGGGG HHH.HHHH III.IIII JJ.JJJJJJJJKKKKKZ
KEY: A-CATALOGNUM B-EPOCHTIME C-DECAY D-ELSETNUM E-INCLINATION F-RAAN
G-ECCENTRICITY H-ARGPERIGEE I-MNANOM J-MNMOTION K-ORBITNUM Z-CHECKSUM

TO ALL RADIO AMATEURS BT

AO-07
1 07530U 74089B   08267.61518789 -.00000027  00000-0  10000-3 0  2853
2 07530 101.4589 295.7949 0012148 069.9830 290.2547 12.53574301549313
AO-10
1 14129U 83058B   08265.82276643 -.00000261  00000-0  10000-3 0  5664
2 14129 026.0358 194.4628 5963241 158.9099 242.8700 02.05869824190094
UO-11
1 14781U 84021B   08267.64639417 -.00000183  00000-0 -17140-4 0  7741
2 14781 098.1465 303.1105 0009952 113.1368 247.0870 14.79663759318419
RS-15
1 23439U 94085A   08266.92940276 -.00000039  00000-0  10000-3 0 01942
2 23439 064.8214 336.9943 0146266 103.9780 257.7457 11.27552502565988
FO-29
1 24278U 96046B   08267.55212029 -.00000085  00000-0 -48247-4 0  8642
2 24278 098.5774 170.9341 0350367 321.0804 036.5576 13.52939385597698
SO-33
1 25509U 98061B   08266.83844539  .00000193  00000-0  25473-4 0  2868
2 25509 031.4289 124.2066 0354783 161.0923 200.3216 14.28226779517581
AO-40
1 26609U 00072B   08267.51973889 -.00000463  00000-0  10000-3 0  1232
2 26609 007.8257 059.1063 7936186 126.1084 335.1143 01.25584355 36276
VO-52
1 28650U 05017B   08266.39521535 -.00000321  00000-0 -34063-4 0 00370
2 28650 097.7795 330.2909 0026991 181.3279 178.7858 14.81498333182998
PO-63
1 29712U 07001D   08267.71487347  .00000420  00000-0  61889-4 0  8208
2 29712 097.8654 324.0081 0015341 063.0969 297.1801 14.80272395 92041
AO-16
1 20439U 90005D   08267.60516736 -.00000004  00000-0  13856-4 0  4244
2 20439 098.2427 242.6928 0009973 243.1895 116.8271 14.31803134975000
LO-19
1 20442U 90005G   08266.51823619 -.00000033  00000-0  29700-5 0 03470
2 20442 098.2114 249.8944 0011043 242.2041 117.8018 14.32040757975003
AO-27
1 22825U 93061C   08266.51073116 -.00000016  00000-0  10344-4 0 00685
2 22825 098.3965 222.9348 0008167 340.3816 019.7049 14.29246903781677
IO-26
1 22826U 93061D   08266.47783388 -.00000022  00000-0  79593-5 0 07800
2 22826 098.3888 223.7691 0008828 336.4598 023.6177 14.29496505781760
GO-32
1 25397U 98043D   08266.27477186  .00000000  00000-0  18256-4 0 07044
2 25397 098.3561 296.6069 0001045 002.9348 357.1838 14.23148501530028
NO-44
1 26931U 01043C   08266.46560480 -.00000261  00000-0 -69583-4 0 09844
2 26931 067.0527 034.0507 0007243 263.8510 096.1774 14.29531953364313
SO-50
1 27607U 02058C   08267.62710015 -.00000200  00000-0 -82663-5 0  7051
2 27607 064.5572 114.6731 0086001 260.4693 098.6681 14.71380258309459
CO-55
1 27844U 03031E   08267.26811330  .00000035  00000-0  36782-4 0  4015
2 27844 098.7180 274.1839 0009532 188.6734 171.4303 14.20597383271360
CO-57
1 27848U 03031J   08266.99764858 -.00000000  00000-0  20337-4 0  3527
2 27848 098.7191 272.9964 0009279 194.1747 165.9168 14.20404991271296
AO-51
1 28375U 04025K   08267.60587971 -.00000001  00000-0  12546-4 0  2056
2 28375 098.0672 286.6242 0082899 214.1486 145.4356 14.40618762222576
CO-56
1 28941U 06005C   08267.78017970  .00021474  25701-5  14419-3 0  4026
2 28941 098.1178 032.3583 0151455 042.0202 319.2567 15.61634588145409
CP3
1 31128U 07012M   08266.84708001 -.00000047  00000-0  00000 0 0  4384
2 31128 098.0287 326.1076 0103594 033.4788 327.2908 14.51976054 76108
CP4
1 31132U 07012Q   08267.90424745  .00000024  00000-0  15692-4 0  4198
2 31132 098.0333 329.7626 0085954 022.9993 337.5019 14.55142917 76301
CO-65
1 32785U 08021C   08267.87121062  .00000024  00000-0  99523-5 0  1661
2 32785 097.9836 327.5002 0015087 171.3076 188.8396 14.81393459 22019
NOAA-10
1 16969U 86073A   08267.22297529  .00000004  00000-0  19737-4 0  3007
2 16969 098.7186 288.9794 0011496 255.2606 104.7308 14.27368504145425
NOAA-11
1 19531U 88089A   08267.04026506 -.00000232  00000-0 -97264-4 0  3308
2 19531 098.7956 354.9914 0011934 146.4067 213.7868 14.14876403 31744
NOAA-12
1 21263U 91032A   08267.60615215  .00000010  00000-0  22987-4 0  8484
2 21263 098.7717 269.5711 0011942 195.9118 164.1688 14.25546988902419
MET-3/5
1 21655U 91056A   08267.57342534  .00000051  00000-0  10000-3 0  4913
2 21655 082.5492 034.8560 0014177 122.9231 237.3255 13.17016341822531
MET-2/21
1 22782U 93055A   08267.77382259  .00000172  00000-0  14221-3 0  2579
2 22782 082.5495 033.3530 0023077 017.4590 342.7376 13.83632061760769
OKEAN-4
1 23317U 94066A   08266.84917760  .00000100  00000-0  93594-5 0  7012
2 23317 082.5388 223.9304 0022417 160.8572 199.3513 14.82635840752758
NOAA-14
1 23455U 94089A   08267.42754587 -.00000222  00000-0 -93587-4 0  3183
2 23455 098.9374 339.6869 0008912 221.9103 138.1417 14.13747193708238
NOAA-15
1 25338U 98030A   08267.04638586 -.00000110  00000-0 -28982-4 0  6325
2 25338 098.5639 256.4574 0011586 113.9157 246.3227 14.24724703538730
RESURS
1 25394U 98043A   08267.53845307 -.00000005  00000-0  15862-4 0   291
2 25394 098.3769 306.9710 0000820 309.2278 050.8834 14.24170777530448
FENGYUN1
1 25730U 99025A   08266.92820151  .00000334  00000-0  22177-3 0 06249
2 25730 098.7304 239.4351 0019642 252.8462 107.0558 14.07782662482719
OKEAN-0
1 25860U 99039A   08266.49295634  .00000003  00000-0  77069-5 0 04807
2 25860 097.7596 252.7805 0001204 035.0520 325.0775 14.73536346493723
NOAA-16
1 26536U 00055A   08267.03162978  .00000261  00000-0  16672-3 0  1065
2 26536 099.1658 258.3932 0009926 314.5570 045.4808 14.12498025412580
NOAA-17
1 27453U 02032A   08267.42339356  .00000205  00000-0  10765-3 0  1043
2 27453 098.5237 329.1578 0011966 177.3107 182.8184 14.24004671324786
NOAA-18
1 28654U 05018A   08267.46480652  .00000423  00000-0  25869-3 0  5906
2 28654 098.8737 207.2107 0015092 038.7823 321.4425 14.11195840172337
HUBBLE
1 20580U 90037B   08267.52461561  .00000302  00000-0  10524-4 0  2261
2 20580 028.4682 041.8201 0003460 345.8625 014.1867 15.00409418809768
PO-34
1 25520U 98064B   08266.94403745  .00000425  00000-0  11104-4 0 00879
2 25520 028.4605 244.2887 0005369 266.9197 093.0787 15.17231276548027
ISS
1 25544U 98067A   08267.50681949  .00007473  00000-0  60054-4 0  3113
2 25544 051.6420 232.1566 0006907 138.2052 325.5286 15.72162260564006
CO-58
1 28895U 05043F   08266.25383114  .00000071  00000-0  24380-4 0 01275
2 28895 098.0831 157.9074 0019010 105.0170 255.3121 14.59697647154648
FALCON
1 30776U 07006E   08266.49043882  .00000315  00000-0  25948-4 0  4026
2 30776 035.4348 283.3443 0000217 158.8793 201.1932 15.03055626 84799
MAST
1 31126U 07012K   08267.61827084 -.00000049  00000-0 -36521-6 0  4232
2 31126 098.0296 328.0692 0095079 027.6290 332.9928 14.53445850 76317
CAPE1
1 31130U 07012P   08266.84077540 -.00000129  00000-0 -18986-4 0 04192
2 31130 098.0315 326.1111 0103488 033.6052 327.1635 14.51991796075892
COMPASS
1 32787U 08021E   08266.64969304  .00000038  00000-0  11757-4 0 01720
2 32787 097.9785 326.2162 0015971 177.4556 182.6740 14.81462651021834
AAUSAT2
1 32788U 08021F   08266.84144509 -.00000139  00000-0 -10784-4 0 01571
2 32788 097.9800 326.4262 0015664 176.8103 183.3167 14.81573070021868
DO-64
1 32789U 08021G   08266.92061082  .00000168  00000-0  28294-4 0 01716
2 32789 097.9831 326.5403 0015848 175.9931 184.1414 14.81476528021879
CO-66
1 32791U 08021J   08266.66381345  .00000151  00000-0  26230-4 0 01571
2 32791 097.9822 326.2494 0016203 175.2576 184.8791 14.81316303021805
RS-30
1 32953U 08025A   08266.56128479  .00000010  00000-0  00000-0 0 01163
2 32953 082.4972 063.0255 0019615 044.9093 315.3577 12.42997623015145
/EX






More information about the Keps mailing list